VTD703 UWSK-UWSK

Flight info

Callsign VTD703
Flight time N/A
Altitude 1200
Route RA/A012
Aircraft DA40/L-SDF/C

Departure

Time 2026-05-07 14:28
Airport Krasny Kut Airport (UWSK)

Arrival

Time N/A
Airport Krasny Kut Airport (UWSK)
Time Latitude Longitude Altitude Speed Heading
2026-05-07 14:21 50.95567 46.94529 152 ft 0 kts 176°
2026-05-07 14:22 50.95551 46.94523 153 ft 5 kts 212°
2026-05-07 14:22 50.95543 46.94482 155 ft 5 kts 294°
2026-05-07 14:23 50.95571 46.94438 156 ft 5 kts 303°
2026-05-07 14:23 50.95602 46.94388 158 ft 6 kts 332°
2026-05-07 14:23 50.95644 46.94367 159 ft 7 kts 357°
2026-05-07 14:23 50.95650 46.94357 159 ft 0 kts 295°
2026-05-07 14:26 50.95651 46.94354 160 ft 3 kts 295°
2026-05-07 14:26 50.95676 46.94312 161 ft 5 kts
2026-05-07 14:26 50.95684 46.94316 161 ft 0 kts 22°
2026-05-07 14:26 50.95782 46.94384 163 ft 39 kts 26°
2026-05-07 14:27 50.96138 46.94657 232 ft 65 kts 23°
2026-05-07 14:27 50.96524 46.94976 458 ft 62 kts 26°
2026-05-07 14:27 50.96908 46.95342 622 ft 70 kts 28°
2026-05-07 14:27 50.97344 46.95762 759 ft 73 kts 26°
2026-05-07 14:28 50.97828 46.95819 791 ft 86 kts 326°
2026-05-07 14:28 50.98127 46.94989 904 ft 89 kts 306°
2026-05-07 14:28 50.98426 46.94111 1035 ft 93 kts 304°
2026-05-07 14:28 50.98702 46.93157 1210 ft 96 kts 290°
2026-05-07 14:29 50.98467 46.92090 1180 ft 118 kts 225°
2026-05-07 14:29 50.97780 46.91426 1175 ft 116 kts 211°
2026-05-07 14:29 50.97029 46.90853 1107 ft 123 kts 206°
2026-05-07 14:29 50.96234 46.90324 1049 ft 122 kts 204°
2026-05-07 14:30 50.95481 46.89811 1129 ft 117 kts 205°
2026-05-07 14:30 50.94763 46.89238 1191 ft 113 kts 206°
2026-05-07 14:30 50.94037 46.88690 1175 ft 117 kts 194°
2026-05-07 14:30 50.93288 46.88950 1144 ft 109 kts 131°
2026-05-07 14:31 50.92942 46.89972 1156 ft 103 kts 107°
2026-05-07 14:31 50.92708 46.91030 1199 ft 100 kts 98°
2026-05-07 14:31 50.92457 46.92084 1175 ft 112 kts 131°
2026-05-07 14:31 50.91716 46.92226 1098 ft 116 kts 214°
2026-05-07 14:32 50.91114 46.91438 1162 ft 113 kts 221°
2026-05-07 14:32 50.90501 46.90598 1200 ft 117 kts 223°
2026-05-07 14:32 50.89889 46.89727 1212 ft 120 kts 223°
2026-05-07 14:32 50.89273 46.88844 1189 ft 119 kts 226°
2026-05-07 14:33 50.88655 46.87929 1158 ft 123 kts 225°
2026-05-07 14:33 50.88036 46.86988 1150 ft 124 kts 227°
2026-05-07 14:33 50.87453 46.85995 1180 ft 123 kts 231°
2026-05-07 14:33 50.86828 46.85019 1196 ft 128 kts 224°
2026-05-07 14:34 50.86170 46.84069 1244 ft 127 kts 225°
2026-05-07 14:34 50.85509 46.83116 1231 ft 130 kts 227°
2026-05-07 14:34 50.84832 46.82130 1205 ft 135 kts 224°
2026-05-07 14:34 50.84145 46.81131 1211 ft 133 kts 224°
2026-05-07 14:35 50.83474 46.80131 1203 ft 132 kts 227°
2026-05-07 14:35 50.82807 46.79116 1133 ft 133 kts 227°
2026-05-07 14:35 50.82131 46.78093 1083 ft 132 kts 229°
2026-05-07 14:35 50.81482 46.77097 1114 ft 128 kts 226°
2026-05-07 14:36 50.80838 46.76134 1132 ft 126 kts 226°
2026-05-07 14:36 50.80200 46.75187 1162 ft 127 kts 226°
2026-05-07 14:36 50.79549 46.74233 1149 ft 129 kts 225°
2026-05-07 14:36 50.78908 46.73269 1195 ft 127 kts 226°
2026-05-07 14:37 50.78254 46.72318 1187 ft 130 kts 226°
2026-05-07 14:37 50.76986 46.70338 1220 ft 129 kts 225°
2026-05-07 14:37 50.76339 46.69326 1182 ft 132 kts 227°
2026-05-07 14:38 50.75685 46.68297 1166 ft 133 kts 225°
2026-05-07 14:38 50.75001 46.67331 1178 ft 130 kts 225°
2026-05-07 14:38 50.74348 46.66360 1172 ft 127 kts 226°
2026-05-07 14:38 50.73705 46.65400 1149 ft 127 kts 226°
2026-05-07 14:39 50.73055 46.64448 1144 ft 126 kts 225°
2026-05-07 14:39 50.72434 46.63525 1162 ft 121 kts 228°
2026-05-07 14:39 50.71828 46.62564 1155 ft 121 kts 229°
2026-05-07 14:39 50.71237 46.61647 1157 ft 122 kts 225°
2026-05-07 14:40 50.70633 46.60730 1156 ft 121 kts 226°
2026-05-07 14:40 50.70044 46.59804 1166 ft 118 kts 227°
2026-05-07 14:40 50.69476 46.58854 1157 ft 119 kts 229°
2026-05-07 14:40 50.68888 46.57933 1157 ft 121 kts 227°
2026-05-07 14:41 50.68280 46.57007 1186 ft 121 kts 227°
2026-05-07 14:41 50.67670 46.56080 1226 ft 123 kts 226°
2026-05-07 14:41 50.67053 46.55136 1278 ft 125 kts 227°
2026-05-07 14:41 50.66437 46.54104 1224 ft 132 kts 231°
2026-05-07 14:42 50.65823 46.53014 1168 ft 133 kts 231°
2026-05-07 14:42 50.65194 46.51938 1133 ft 134 kts 232°
2026-05-07 14:42 50.64599 46.50816 1105 ft 132 kts 236°
2026-05-07 14:42 50.64067 46.49669 1103 ft 129 kts 239°
2026-05-07 14:43 50.63582 46.48497 1122 ft 124 kts 235°
2026-05-07 14:43 50.62829 46.47867 1119 ft 127 kts 188°
2026-05-07 14:43 50.62040 46.48248 1185 ft 113 kts 133°
2026-05-07 14:43 50.61745 46.49320 1114 ft 109 kts 82°
2026-05-07 14:44 50.61633 46.50553 1046 ft 115 kts 94°
2026-05-07 14:44 50.61538 46.51727 1126 ft 106 kts 88°
2026-05-07 14:44 50.61501 46.52869 1145 ft 102 kts 74°
2026-05-07 14:44 50.61656 46.53950 1156 ft 103 kts 75°
2026-05-07 14:45 50.61871 46.54982 1162 ft 99 kts 44°
2026-05-07 14:45 50.62150 46.55946 1196 ft 106 kts 88°
2026-05-07 14:45 50.62021 46.57111 1205 ft 109 kts 95°
2026-05-07 14:45 50.61869 46.58267 1235 ft 107 kts 96°
2026-05-07 14:46 50.61715 46.59428 1260 ft 108 kts 97°
2026-05-07 14:46 50.61549 46.60611 1275 ft 113 kts 96°
2026-05-07 14:46 50.61394 46.61817 1272 ft 114 kts 90°
2026-05-07 14:46 50.61285 46.63077 1216 ft 118 kts 92°
2026-05-07 14:47 50.61169 46.64336 1192 ft 116 kts 93°
2026-05-07 14:47 50.61072 46.65557 1217 ft 112 kts 92°
2026-05-07 14:47 50.60981 46.66787 1137 ft 113 kts 91°
2026-05-07 14:47 50.60894 46.68024 1085 ft 112 kts 91°
2026-05-07 14:48 50.60793 46.69236 1094 ft 109 kts 91°
2026-05-07 14:48 50.60687 46.70384 1158 ft 105 kts 91°
2026-05-07 14:48 50.60597 46.71533 1137 ft 105 kts 91°
2026-05-07 14:48 50.60474 46.72674 1146 ft 106 kts 93°
2026-05-07 14:49 50.60349 46.73778 1231 ft 102 kts 91°
2026-05-07 14:49 50.60232 46.74893 1235 ft 105 kts 91°
2026-05-07 14:49 50.60104 46.76050 1206 ft 108 kts 94°
2026-05-07 14:49 50.59974 46.77228 1148 ft 111 kts 93°
2026-05-07 14:50 50.59909 46.78031 1140 ft 111 kts 91°
2026-05-07 14:50 50.59843 46.79228 1181 ft 108 kts 89°
2026-05-07 14:50 50.59809 46.80414 1197 ft 109 kts 83°
2026-05-07 14:50 50.59818 46.81590 1230 ft 106 kts 83°
2026-05-07 14:51 50.59705 46.82769 1215 ft 112 kts 94°
2026-05-07 14:51 50.59575 46.83998 1160 ft 115 kts 95°
2026-05-07 14:51 50.59471 46.85252 1106 ft 116 kts 93°
2026-05-07 14:51 50.59371 46.86487 1088 ft 111 kts 92°
2026-05-07 14:52 50.59267 46.87645 1082 ft 108 kts 91°
2026-05-07 14:52 50.59167 46.88821 1084 ft 108 kts 94°
2026-05-07 14:52 50.59046 46.89981 1100 ft 107 kts 91°
2026-05-07 14:52 50.58925 46.91118 1124 ft 102 kts 92°
2026-05-07 14:53 50.58786 46.92193 1145 ft 99 kts 92°
2026-05-07 14:53 50.58658 46.93243 1184 ft 98 kts 92°
2026-05-07 14:53 50.58528 46.94329 1189 ft 104 kts 92°
2026-05-07 14:53 50.58406 46.95481 1218 ft 107 kts 91°
2026-05-07 14:54 50.58268 46.96637 1236 ft 106 kts 90°
2026-05-07 14:54 50.58140 46.97803 1138 ft 111 kts 91°
2026-05-07 14:54 50.58005 46.98957 1182 ft 103 kts 92°
2026-05-07 14:54 50.57905 47.00092 1149 ft 107 kts 92°
2026-05-07 14:55 50.57785 47.01256 1180 ft 108 kts 93°
2026-05-07 14:55 50.57667 47.02435 1173 ft 112 kts 91°
2026-05-07 14:55 50.57506 47.03629 1225 ft 111 kts 96°
2026-05-07 14:55 50.57299 47.04778 1249 ft 109 kts 97°
2026-05-07 14:56 50.57066 47.05928 1247 ft 110 kts 99°
2026-05-07 14:56 50.56876 47.07085 1262 ft 107 kts 97°
2026-05-07 14:56 50.56661 47.08268 1167 ft 118 kts 100°
2026-05-07 14:56 50.56414 47.09502 1134 ft 119 kts 101°
2026-05-07 14:57 50.56176 47.10742 1160 ft 116 kts 99°
2026-05-07 14:57 50.55958 47.11905 1220 ft 110 kts 97°
2026-05-07 14:57 50.55799 47.13113 1167 ft 116 kts 93°
2026-05-07 14:57 50.55648 47.14337 1175 ft 113 kts 92°
2026-05-07 14:58 50.55537 47.15559 1122 ft 113 kts 87°
2026-05-07 14:58 50.55528 47.16722 1206 ft 102 kts 62°
2026-05-07 14:58 50.55949 47.17578 1249 ft 99 kts 39°
2026-05-07 14:58 50.56493 47.18297 1259 ft 103 kts 39°
2026-05-07 14:59 50.57035 47.19045 1217 ft 107 kts 39°
2026-05-07 14:59 50.57594 47.19832 1157 ft 106 kts 39°
2026-05-07 14:59 50.58139 47.20596 1166 ft 103 kts 39°
2026-05-07 14:59 50.58655 47.21385 1105 ft 106 kts 41°
2026-05-07 15:00 50.59193 47.22167 1106 ft 104 kts 39°
2026-05-07 15:00 50.59725 47.22956 1051 ft 103 kts 38°
2026-05-07 15:00 50.60235 47.23677 1096 ft 97 kts 40°
2026-05-07 15:00 50.60717 47.24377 1163 ft 93 kts 40°
2026-05-07 15:01 50.61212 47.25030 1202 ft 92 kts 39°
2026-05-07 15:01 50.61729 47.25688 1221 ft 98 kts 41°
2026-05-07 15:01 50.62247 47.26391 1260 ft 98 kts 42°
2026-05-07 15:01 50.62735 47.27133 1282 ft 99 kts 40°
2026-05-07 15:02 50.63259 47.27885 1232 ft 103 kts 41°
2026-05-07 15:02 50.63790 47.28643 1191 ft 101 kts 42°
2026-05-07 15:02 50.64321 47.29387 1148 ft 101 kts 41°
2026-05-07 15:02 50.64859 47.30099 1144 ft 101 kts 41°
2026-05-07 15:03 50.65389 47.30836 1143 ft 104 kts 41°
2026-05-07 15:03 50.65910 47.31592 1182 ft 98 kts 41°
2026-05-07 15:03 50.66397 47.32321 1160 ft 98 kts 40°
2026-05-07 15:03 50.66908 47.33042 1151 ft 99 kts 40°
2026-05-07 15:04 50.67417 47.33755 1131 ft 101 kts 42°
2026-05-07 15:04 50.67961 47.34501 1108 ft 100 kts 43°
2026-05-07 15:04 50.68462 47.35231 1061 ft 100 kts 44°
2026-05-07 15:04 50.68971 47.35958 1105 ft 97 kts 40°
2026-05-07 15:05 50.69465 47.36678 1138 ft 96 kts 40°
2026-05-07 15:05 50.69959 47.37412 1140 ft 99 kts 40°
2026-05-07 15:05 50.70461 47.38150 1167 ft 96 kts 42°
2026-05-07 15:05 50.70938 47.38847 1153 ft 94 kts 42°
2026-05-07 15:06 50.71450 47.39514 1136 ft 92 kts 39°
2026-05-07 15:06 50.71940 47.40133 1155 ft 88 kts 42°
2026-05-07 15:06 50.72370 47.40795 1194 ft 86 kts 42°
2026-05-07 15:06 50.72766 47.41531 1248 ft 90 kts 50°
2026-05-07 15:07 50.73080 47.42425 1240 ft 97 kts 59°
2026-05-07 15:07 50.73392 47.43392 1215 ft 100 kts 61°
2026-05-07 15:07 50.73702 47.44393 1181 ft 102 kts 63°
2026-05-07 15:07 50.73979 47.45424 1144 ft 103 kts 64°
2026-05-07 15:08 50.74231 47.46470 1141 ft 100 kts 66°
2026-05-07 15:08 50.74437 47.47499 1167 ft 97 kts 62°
2026-05-07 15:08 50.74678 47.48510 1178 ft 100 kts 63°
2026-05-07 15:08 50.74941 47.49549 1156 ft 103 kts 65°
2026-05-07 15:09 50.75187 47.50617 1153 ft 105 kts 64°
2026-05-07 15:09 50.75439 47.51667 1150 ft 102 kts 64°
2026-05-07 15:09 50.75666 47.52683 1224 ft 96 kts 64°
2026-05-07 15:09 50.75925 47.53682 1220 ft 100 kts 63°
2026-05-07 15:10 50.76168 47.54719 1232 ft 101 kts 65°
2026-05-07 15:10 50.76410 47.55783 1143 ft 104 kts 63°
2026-05-07 15:10 50.76665 47.56828 1143 ft 100 kts 63°
2026-05-07 15:10 50.76915 47.57843 1144 ft 100 kts 64°
2026-05-07 15:11 50.77162 47.58853 1183 ft 97 kts 64°
2026-05-07 15:11 50.77439 47.59838 1155 ft 100 kts 58°
2026-05-07 15:11 50.77713 47.60843 1123 ft 99 kts 64°
2026-05-07 15:11 50.77952 47.61865 1122 ft 100 kts 65°
2026-05-07 15:12 50.78199 47.62867 1204 ft 96 kts 64°
2026-05-07 15:12 50.78442 47.63866 1213 ft 99 kts 65°
2026-05-07 15:12 50.78675 47.64909 1196 ft 102 kts 67°
2026-05-07 15:12 50.78911 47.65987 1190 ft 105 kts 65°
2026-05-07 15:13 50.79144 47.67063 1233 ft 104 kts 65°
2026-05-07 15:13 50.79396 47.68161 1185 ft 108 kts 64°
2026-05-07 15:13 50.79693 47.69242 1133 ft 109 kts 64°
2026-05-07 15:13 50.79981 47.70328 1126 ft 106 kts 64°
2026-05-07 15:14 50.80244 47.71418 1085 ft 106 kts 65°
2026-05-07 15:14 50.80477 47.72511 1099 ft 103 kts 65°
2026-05-07 15:14 50.80757 47.73545 1145 ft 102 kts 65°
2026-05-07 15:14 50.81001 47.74612 1131 ft 104 kts 66°
2026-05-07 15:15 50.81214 47.75686 1155 ft 101 kts 67°
2026-05-07 15:15 50.81431 47.76721 1214 ft 99 kts 64°
2026-05-07 15:15 50.81677 47.77754 1244 ft 101 kts 63°
2026-05-07 15:15 50.81952 47.78789 1217 ft 105 kts 64°
2026-05-07 15:16 50.82192 47.79913 1169 ft 109 kts 66°
2026-05-07 15:16 50.82414 47.81063 1178 ft 109 kts 69°
2026-05-07 15:16 50.82631 47.82178 1174 ft 107 kts 69°
2026-05-07 15:16 50.82895 47.83305 1081 ft 112 kts 65°
2026-05-07 15:17 50.83226 47.84411 1104 ft 107 kts 63°
2026-05-07 15:17 50.83505 47.85498 1128 ft 105 kts 65°
2026-05-07 15:17 50.83752 47.86577 1123 ft 107 kts 66°
2026-05-07 15:17 50.84006 47.87664 1125 ft 104 kts 65°
2026-05-07 15:18 50.84260 47.88749 1121 ft 105 kts 67°
2026-05-07 15:18 50.84490 47.89837 1152 ft 105 kts 68°
2026-05-07 15:18 50.84742 47.90923 1174 ft 105 kts 65°
2026-05-07 15:18 50.84995 47.92037 1132 ft 109 kts 67°
2026-05-07 15:19 50.85210 47.92891 1171 ft 106 kts 67°
2026-05-07 15:20 50.85450 47.93927 1166 ft 106 kts 67°
2026-05-07 15:21 50.85704 47.95012 1161 ft 106 kts 66°
2026-05-07 15:21 50.85732 47.95127 1157 ft 106 kts 66°
2026-05-07 15:21 50.85979 47.96156 1107 ft 108 kts 68°
2026-05-07 15:22 50.86236 47.97275 1017 ft 108 kts 70°
2026-05-07 15:22 50.86449 47.98371 1083 ft 102 kts 70°
2026-05-07 15:22 50.86660 47.99412 1152 ft 97 kts 64°
2026-05-07 15:22 50.86916 48.00394 1195 ft 95 kts 62°
2026-05-07 15:23 50.87185 48.01340 1235 ft 95 kts 62°
2026-05-07 15:23 50.87447 48.02357 1161 ft 105 kts 65°
2026-05-07 15:23 50.87709 48.03444 1160 ft 105 kts 65°
2026-05-07 15:23 50.87949 48.04514 1178 ft 104 kts 67°
2026-05-07 15:24 50.88168 48.05624 1179 ft 106 kts 67°
2026-05-07 15:24 50.88424 48.06707 1176 ft 103 kts 67°
2026-05-07 15:24 50.88693 48.07753 1149 ft 103 kts 61°
2026-05-07 15:24 50.89020 48.08774 1149 ft 105 kts 57°
2026-05-07 15:25 50.89361 48.09770 1231 ft 100 kts 59°
2026-05-07 15:25 50.89694 48.10766 1181 ft 104 kts 60°
2026-05-07 15:25 50.90020 48.11780 1173 ft 103 kts 58°
2026-05-07 15:25 50.90376 48.12794 1178 ft 104 kts 56°
2026-05-07 15:26 50.90769 48.13774 1151 ft 107 kts 53°
2026-05-07 15:26 50.91221 48.14721 1131 ft 107 kts 51°
2026-05-07 15:26 50.91682 48.15619 1153 ft 104 kts 49°
2026-05-07 15:26 50.92115 48.16520 1153 ft 104 kts 49°
2026-05-07 15:27 50.92718 48.17170 1084 ft 110 kts 11°
2026-05-07 15:27 50.93424 48.16728 1053 ft 116 kts 317°
2026-05-07 15:27 50.94026 48.15965 1095 ft 109 kts 328°
2026-05-07 15:27 50.94649 48.15285 1122 ft 107 kts 329°
2026-05-07 15:28 50.95245 48.14597 1150 ft 107 kts 330°
2026-05-07 15:28 50.95848 48.13898 1169 ft 107 kts 330°
2026-05-07 15:28 50.96441 48.13179 1184 ft 108 kts 330°
2026-05-07 15:28 50.97047 48.12467 1186 ft 109 kts 330°
2026-05-07 15:29 50.97670 48.11749 1129 ft 112 kts 331°
2026-05-07 15:29 50.98303 48.11043 1139 ft 110 kts 330°
2026-05-07 15:29 50.98911 48.10325 1156 ft 108 kts 329°
2026-05-07 15:29 50.99518 48.09649 1169 ft 106 kts 331°
2026-05-07 15:30 51.00138 48.09037 1182 ft 105 kts 334°
2026-05-07 15:30 51.00763 48.08430 1141 ft 108 kts 334°
2026-05-07 15:30 51.01403 48.07791 1119 ft 108 kts 333°
2026-05-07 15:30 51.02026 48.07166 1163 ft 104 kts 332°
2026-05-07 15:31 51.02640 48.06545 1165 ft 105 kts 335°
2026-05-07 15:31 51.03284 48.05995 1171 ft 103 kts 341°
2026-05-07 15:31 51.03951 48.05566 1163 ft 104 kts 345°
2026-05-07 15:31 51.04644 48.05217 1158 ft 105 kts 348°
2026-05-07 15:32 51.05342 48.04883 1165 ft 105 kts 343°
2026-05-07 15:32 51.05957 48.04222 1188 ft 104 kts 330°
2026-05-07 15:32 51.06534 48.03512 1182 ft 106 kts 329°
2026-05-07 15:32 51.07132 48.02806 1170 ft 107 kts 330°
2026-05-07 15:33 51.07727 48.02097 1199 ft 107 kts 331°
2026-05-07 15:33 51.08361 48.01456 1186 ft 109 kts 334°
2026-05-07 15:33 51.09000 48.00784 1153 ft 113 kts 331°
2026-05-07 15:33 51.09647 48.00074 1152 ft 112 kts 332°
2026-05-07 15:34 51.10288 47.99379 1156 ft 111 kts 329°
2026-05-07 15:34 51.10915 47.98669 1179 ft 110 kts 330°
2026-05-07 15:34 51.11548 47.97991 1200 ft 110 kts 331°
2026-05-07 15:34 51.12184 47.97315 1182 ft 110 kts 334°
2026-05-07 15:35 51.12843 47.96729 1162 ft 108 kts 337°
2026-05-07 15:35 51.13487 47.96137 1176 ft 106 kts 335°
2026-05-07 15:35 51.14129 47.95572 1190 ft 104 kts 339°
2026-05-07 15:35 51.14770 47.95044 1228 ft 102 kts 337°
2026-05-07 15:36 51.15394 47.94499 1218 ft 106 kts 340°
2026-05-07 15:36 51.16065 47.93963 1174 ft 110 kts 339°
2026-05-07 15:36 51.16693 47.93290 1169 ft 113 kts 314°
2026-05-07 15:36 51.16814 47.92046 1202 ft 119 kts 260°
2026-05-07 15:37 51.16425 47.90848 1172 ft 123 kts 245°
2026-05-07 15:37 51.16061 47.89654 1221 ft 121 kts 250°
2026-05-07 15:37 51.15688 47.88432 1192 ft 124 kts 243°
2026-05-07 15:37 51.15265 47.87243 1149 ft 125 kts 247°
2026-05-07 15:38 51.15003 47.86438 1157 ft 123 kts 246°
2026-05-07 15:38 51.14605 47.85248 1151 ft 121 kts 245°
2026-05-07 15:38 51.14213 47.84069 1130 ft 122 kts 246°
2026-05-07 15:38 51.13681 47.82533 1188 ft 117 kts 243°
2026-05-07 15:39 51.13287 47.81391 1133 ft 118 kts 241°
2026-05-07 15:39 51.13023 47.80627 1136 ft 115 kts 245°
2026-05-07 15:39 51.12624 47.79502 1105 ft 121 kts 245°
2026-05-07 15:39 51.12223 47.78351 1143 ft 118 kts 244°
2026-05-07 15:40 51.11859 47.77187 1172 ft 118 kts 246°
2026-05-07 15:40 51.11488 47.76015 1183 ft 119 kts 245°
2026-05-07 15:40 51.11094 47.74864 1195 ft 119 kts 244°
2026-05-07 15:40 51.10673 47.73709 1199 ft 122 kts 244°
2026-05-07 15:41 51.10279 47.72534 1247 ft 119 kts 244°
2026-05-07 15:41 51.09874 47.71351 1219 ft 123 kts 249°
2026-05-07 15:41 51.09524 47.70121 1234 ft 120 kts 245°
2026-05-07 15:41 51.09129 47.68925 1212 ft 123 kts 246°
2026-05-07 15:42 51.08762 47.67700 1171 ft 126 kts 248°
2026-05-07 15:42 51.08357 47.66465 1137 ft 126 kts 246°
2026-05-07 15:42 51.07927 47.65265 1150 ft 124 kts 244°
2026-05-07 15:42 51.07498 47.64085 1175 ft 124 kts 245°
2026-05-07 15:43 51.07094 47.62875 1151 ft 126 kts 249°
2026-05-07 15:43 51.06707 47.61588 1139 ft 128 kts 250°
2026-05-07 15:43 51.06338 47.60318 1175 ft 126 kts 249°
2026-05-07 15:43 51.05966 47.59048 1144 ft 125 kts 248°
2026-05-07 15:44 51.05588 47.57814 1162 ft 125 kts 248°
2026-05-07 15:44 51.05180 47.56589 1163 ft 124 kts 246°
2026-05-07 15:44 51.04765 47.55388 1140 ft 124 kts 244°
2026-05-07 15:44 51.04372 47.54187 1130 ft 122 kts 247°
2026-05-07 15:45 51.03978 47.52982 1080 ft 124 kts 247°
2026-05-07 15:45 51.03597 47.51787 1100 ft 119 kts 249°
2026-05-07 15:45 51.03235 47.50622 1139 ft 116 kts 248°
2026-05-07 15:45 51.02884 47.49478 1148 ft 114 kts 251°
2026-05-07 15:46 51.02239 47.47162 1148 ft 115 kts 251°
2026-05-07 15:46 51.01935 47.45983 1152 ft 117 kts 251°
2026-05-07 15:46 51.01615 47.44797 1099 ft 116 kts 251°
2026-05-07 15:47 51.01310 47.43644 1101 ft 113 kts 252°
2026-05-07 15:47 51.01000 47.42518 1145 ft 111 kts 250°
2026-05-07 15:47 51.00686 47.41400 1133 ft 111 kts 251°
2026-05-07 15:47 51.00383 47.40272 1143 ft 110 kts 251°
2026-05-07 15:48 51.00091 47.39156 1163 ft 110 kts 254°
2026-05-07 15:48 50.99829 47.38010 1167 ft 110 kts 255°
2026-05-07 15:48 50.99570 47.36865 1133 ft 112 kts 255°
2026-05-07 15:48 50.99283 47.35712 1120 ft 111 kts 251°
2026-05-07 15:49 50.98984 47.34605 1180 ft 109 kts 251°
2026-05-07 15:49 50.98694 47.33483 1205 ft 111 kts 253°
2026-05-07 15:49 50.98430 47.32329 1239 ft 112 kts 254°
2026-05-07 15:49 50.98166 47.31139 1251 ft 116 kts 252°
2026-05-07 15:50 50.97853 47.29920 1208 ft 122 kts 252°
2026-05-07 15:50 50.97558 47.28644 1211 ft 124 kts 254°
2026-05-07 15:50 50.97282 47.27350 1193 ft 123 kts 255°
2026-05-07 15:50 50.97012 47.26092 1231 ft 120 kts 258°